User: anonymous   Login
Location: Kaarina
(60.4167°N, 22.4167°E)
Time: 06:15:58
(UTC+03:00)
Language:

Cosmos 839 Rocket - Orbit

View from above orbital plane
View from above orbital plane
View from above satellite
View from above satellite

Ground track
Ground track

The orbit data is extracted from the following two-line orbital elements,

1  9013U 76067B   19294.89717927 -.00000074 +00000-0 -67025-4 0  9991
2  9013 065.8636 143.0452 0705729 097.6603 270.5056 12.35345610952235
Epoch (UTC): 21 October 2019 21:31:56
Eccentricity: 0.0705729
inclination: 65.8636°
perigee height: 968 km
apogee height: 2084 km
right ascension of ascending node: 143.0452°
argument of perigee: 97.6603°
revolutions per day: 12.35345610
mean anomaly at epoch: 270.5056°
orbit number at epoch: 95223

The dashed part of the orbit path shows where the satellite is in the earth's shadow,  

DLR